Regional Weather Roundup
Issued by NWS Huntsville, AL

Home | Current Version | Previous Version | Text Only | Print | Product List | Glossary On
Versions: 1 2 3 4 5 6 7 8 9 10 11 12 13 14 15 16 17 18 19 20 21 22 23 24 25 26 27 28 29 30 31 32 33 34 35 36 37 38 39 40 41 42 43 44 45 46 47 48 49 50
000
ASUS44 KHUN 230810
RWRHUN

WEATHER ROUNDUP FOR THE TENNESSEE VALLEY
NATIONAL WEATHER SERVICE HUNTSVILLE AL
300 AM CDT SAT MAY 23 2015

ALZ001>004-230900-
NORTHWEST ALABAMA

CITY           SKY/WX    TMP DP  RH WIND       PRES   REMARKS
COURTLAND HCN    N/A     52  32  47 CALM        N/A
SHOALS AIRPORT CLEAR     51  48  89 CALM      30.27R
SHOALS TVA RES   N/A     50 N/A N/A MISG        N/A
$$

ALZ005>007-016-230900-
NORTH CENTRAL ALABAMA

CITY           SKY/WX    TMP DP  RH WIND       PRES   REMARKS
CULLMAN AG STN   N/A     48 N/A N/A CALM        N/A
DECATUR AP     CLEAR     51  50  96 CALM      30.26R
HUNTSVILLE AP  CLEAR     54  49  83 N5        30.26R
MERIDIANVILLE  CLEAR     50  45  81 CALM      30.27R
REDSTONE ARSN  CLEAR     53  49  86 N6        30.26R
VINEMONT AP    FAIR      50  49  96 CALM      30.27F
$$

ALZ008>010-230900-
NORTHEAST ALABAMA

CITY           SKY/WX    TMP DP  RH WIND       PRES   REMARKS
ALBERTVILLE    CLEAR     52  50  93 E3        30.26R
FORT PAYNE     CLEAR     45  43  93 CALM      30.26S
SCOTTSBORO HCN   N/A     48 N/A N/A MISG        N/A
VALLEY HEAD      N/A     46 N/A N/A MISG        N/A
$$

TNZ076-096-097-230900-
SOUTHEASTERN MIDDLE TENNESSEE

CITY           SKY/WX    TMP DP  RH WIND       PRES   REMARKS
TULLAHOMA      CLEAR     45  41  87 CALM      30.29R
WINCHESTER     CLEAR     46  46 100 CALM      30.28S
$$

...SURROUNDING SITES...

CITY           SKY/WX    TMP DP  RH WIND       PRES   REMARKS
ATLANTA        CLEAR     63  52  67 E5        30.26S
ANNISTON       CLEAR     57  51  80 N3        30.26R
BIRMINGHAM     CLEAR     63  48  58 E3        30.26R
CHATTANOOGA    CLEAR     52  49  89 CALM      30.28S
CORINTH        FAIR      55  54  94 CALM      30.24S
DALTON         CLEAR     48  48 100 CALM      30.28S
GADSDEN        CLEAR    N/A N/A N/A CALM      30.25R
GOLDEN TRNGL   CLEAR     55  52  88 E3        30.20F
HALEYVILLE     FAIR      46  46 100 CALM      30.28R
JACKSON TN     CLOUDY    56  51  84 CALM      30.25R
LEWISBURG      FAIR      44  42  93 CALM      30.27S
MEMPHIS        CLOUDY    65  49  56 E5        30.22S
NASHVILLE      PTCLDY    52  50  93 S3        30.28S
OXFORD MS      FAIR      55  50  82 CALM      30.24S
ROME           CLEAR     50  48  93 N5        30.27R
SAVANNAH       CLEAR     48  32  53 CALM      30.25F
TUPELO         MOCLDY    57  53  86 N5        30.23R
TUSCALOOSA     CLEAR     55  53  93 CALM      30.23R
$$

...GULF COAST WEATHER...

CITY           SKY/WX    TMP DP  RH WIND       PRES   REMARKS
GULFPORT       CLEAR     70  61  73 NE5       30.15F
PASCAGOULA     CLEAR     68  59  73 E3        30.16F
MOBILE         CLOUDY    68  58  70 NE5       30.18F
GULF SHORES    SUNNY     66  59  79 N5        30.17S
PENSACOLA      CLEAR     70  58  65 N7        30.16S
DESTIN         CLEAR     72  60  66 NE5       30.17S
PANAMA CITY    CLEAR     69  58  69 NE5       30.15F
APPALACHICOLA  CLEAR     69  59  70 NE5       30.15F
$$



USA.gov is the U.S. government's official web portal to all federal, state and local government web resources and services.